Date,TemperatureHighF,TemperatureAvgF,TemperatureLowF,DewpointHighF,DewpointAvgF,DewpointLowF,HumidityHigh,HumidityAvg,HumidityLow,PressureMaxIn,PressureMinIn,WindSpeedMaxMPH,WindSpeedAvgMPH,GustSpeedMaxMPH,PrecipitationSumIn
2014-1-1,50,41,35,-100,-100,-100,0,0,100,30.32,30.24,3,1,10,0.00
2014-4-30,71,50,44,-100,-100,-100,0,0,100,30.39,30.19,5,1,8,0.00
2014-5-1,76,64,55,-100,-100,-100,0,0,100,30.14,29.89,2,0,7,0.00
2014-5-2,72,62,50,-100,-100,-100,0,0,100,29.96,29.72,3,1,12,0.00
2014-5-3,58,48,42,-100,-100,-100,0,0,100,29.77,29.69,5,2,12,0.00
2014-5-4,49,44,42,-100,-100,-100,0,0,100,29.79,29.73,8,4,13,0.00
2014-5-5,50,41,35,-100,-100,-100,0,0,100,29.96,29.87,8,2,16,0.00
2014-5-6,37,36,35,-100,-100,-100,0,0,100,29.96,29.95,3,2,6,0.00
2014-5-18,47,46,46,-100,-100,-100,0,0,100,29.75,29.73,0,0,3,0.00
2014-5-19,43,31,38,-100,-100,-100,0,0,100,29.91,29.87,2,0,3,0.00
2014-5-20,66,52,41,-100,-100,-100,0,0,100,29.97,29.92,7,2,14,0.00
2014-5-21,71,61,45,-100,-100,-100,0,0,100,29.98,29.90,9,3,13,0.00
2014-5-22,78,64,48,-100,-100,-100,0,0,100,29.96,29.85,6,2,12,0.00
2014-5-23,68,61,54,-100,-100,-100,0,0,100,29.92,29.84,12,3,20,0.00
2014-5-24,68,54,45,-100,-100,-100,0,0,100,30.02,29.93,10,2,12,0.00
2014-6-6,73,58,46,-25,-35,-42,0,0,100,29.94,29.87,6,2,12,0.00
2014-6-7,71,56,48,-26,-42,-100,0,0,100,29.96,29.91,8,3,14,0.00
2014-6-8,63,58,49,-31,-34,-40,0,0,100,30.03,29.93,1,1,9,0.00
2014-6-9,73,61,50,-25,-33,-40,0,0,100,29.93,29.82,7,3,15,0.00
2014-6-10,67,55,47,-29,-41,-100,0,0,100,29.91,29.86,13,3,17,0.00
2014-6-11,75,58,42,-24,-34,-45,0,0,100,29.92,29.70,7,2,12,0.00
2014-6-12,64,56,45,-31,-36,-44,0,0,100,29.78,29.62,20,4,27,0.00
2014-6-13,47,44,42,-41,-43,-45,0,0,100,29.89,29.78,9,4,15,0.00
2014-6-14,58,45,38,-34,-43,-100,0,0,100,30.04,29.92,8,2,14,0.00
2014-6-15,57,47,40,-35,-41,-46,0,0,100,29.92,29.74,8,2,18,0.00
2014-6-16,47,41,36,-41,-49,-100,0,0,100,29.80,29.76,7,2,12,0.00
2014-6-17,38,36,35,-47,-48,-49,0,0,100,30.04,29.95,1,0,2,0.00
2014-6-18,70,53,39,-27,-38,-46,0,0,100,30.06,29.90,10,2,12,0.00
2014-6-19,76,62,48,-23,-32,-41,0,0,100,29.93,29.82,14,3,17,0.00
2014-6-20,67,57,47,-29,-35,-41,0,0,100,29.95,29.88,13,2,17,0.00
2014-6-21,70,55,42,-27,-37,-100,0,0,100,29.95,29.87,7,2,13,0.00
2014-6-22,76,63,50,-23,-34,-100,0,0,100,29.95,29.82,10,2,13,0.00
2014-6-23,79,66,55,-21,-33,-100,0,0,100,29.87,29.74,10,3,14,0.00
2014-6-24,57,56,56,-35,-36,-36,0,0,100,29.87,29.87,1,1,5,0.00
2014-6-25,65,57,52,-30,-44,-77,0,0,100,29.88,29.70,3,1,7,0.00
2014-6-26,52,52,52,-57,-57,-57,0,0,100,29.71,29.71,0,0,0,0.00
2014-6-27,63,56,51,-37,-66,-77,0,0,100,29.83,29.72,12,4,20,0.00
2014-6-28,67,54,47,-29,-39,-100,0,0,100,29.93,29.83,10,2,15,0.00
2014-6-29,68,56,46,-28,-41,-100,0,0,100,30.04,29.93,8,2,13,0.00
2014-6-30,80,62,44,-21,-32,-43,0,0,100,30.08,29.90,8,2,12,0.00
2014-7-1,90,70,53,-15,-27,-38,0,0,100,29.90,29.62,7,1,12,0.00
2014-7-2,83,72,66,-19,-26,-29,0,0,100,29.69,29.62,5,2,9,0.00
2014-7-3,81,67,54,-20,-29,-37,0,0,100,29.82,29.73,5,2,13,0.00
2014-7-4,81,67,54,-20,-29,-37,0,0,100,29.86,29.77,12,2,18,0.00
2014-7-5,85,68,59,-18,-31,-100,0,0,100,29.93,29.86,12,1,13,0.00
2014-7-6,85,70,60,-18,-27,-33,0,0,100,29.95,29.87,8,1,14,0.00
2014-7-7,88,72,60,-16,-26,-33,0,0,100,29.92,29.77,7,1,12,0.00
2014-7-8,91,78,65,-14,-27,-100,0,0,100,29.80,29.69,7,2,12,0.00
2014-7-9,88,78,67,-16,-22,-29,0,0,100,29.75,29.64,7,2,12,0.00
2014-7-10,88,76,60,-16,-24,-33,0,0,100,29.71,29.62,7,1,12,0.00
2014-7-11,84,73,64,-18,-25,-31,0,0,100,29.82,29.70,8,1,9,0.00
2014-7-12,92,76,66,-13,-19,-29,0,0,100,29.91,29.82,7,1,12,0.00
2014-7-13,87,78,71,-16,-22,-26,0,0,100,29.87,29.75,8,2,16,0.00
2014-7-14,87,73,63,-16,-25,-31,0,0,100,29.88,29.82,9,2,20,0.00
2014-7-15,90,76,64,-15,-23,-31,0,0,100,29.89,29.77,5,1,13,0.00
2014-7-16,93,81,71,-13,-20,-26,0,0,100,29.80,29.66,6,1,17,0.00
2014-7-17,84,72,62,-18,-25,-32,0,0,100,29.77,29.70,7,2,17,0.00
2014-7-18,83,66,57,-19,-30,-35,0,0,100,29.88,29.78,8,2,15,0.00
2014-7-19,82,68,60,-20,-28,-33,0,0,100,29.90,29.80,9,2,14,0.00
2014-7-20,78,66,60,-22,-29,-36,0,0,100,29.79,29.64,12,3,18,0.00
2014-7-21,74,63,51,-25,-31,-39,0,0,100,29.88,29.71,3,1,7,0.00
2014-7-22,75,66,58,-24,-29,-34,0,0,100,29.88,29.84,6,2,13,0.00
2014-7-23,57,53,44,-35,-52,-75,0,0,100,30.04,29.82,10,2,17,0.00
2014-7-24,65,53,43,-30,-37,-44,0,0,100,30.18,30.06,7,2,12,0.00
2014-7-25,77,60,44,-23,-33,-43,0,0,100,30.08,29.91,5,1,12,0.00
2014-7-26,84,68,54,-18,-24,-37,0,0,100,29.97,29.88,9,2,12,0.00
2014-7-27,82,71,61,-20,-26,-33,0,0,100,29.94,29.87,6,1,12,0.00
2014-7-28,91,78,64,-14,-22,-31,0,0,100,29.92,29.82,7,1,13,0.00
2014-7-29,93,79,70,-13,-20,-27,0,0,100,29.90,29.78,9,2,20,0.00
2014-7-30,90,77,66,-15,-20,-29,0,0,100,29.87,29.80,12,2,14,0.00
2014-7-31,74,62,69,-25,-23,-28,0,0,100,29.85,29.82,2,0,6,0.00
2014-8-1,90,80,65,-15,-21,-30,0,0,100,29.82,29.69,3,1,14,0.00
2014-8-2,87,77,68,-16,-23,-28,0,0,100,29.75,29.68,5,1,8,0.00
2014-8-3,84,71,60,-18,-26,-33,0,0,100,29.82,29.72,9,2,15,0.00
2014-8-4,88,74,66,-16,-25,-29,0,0,100,29.77,29.67,6,1,12,0.00
2014-8-5,84,72,63,-18,-26,-31,0,0,100,29.85,29.74,6,1,12,0.00
2014-8-6,81,68,58,-20,-28,-34,0,0,100,29.91,29.83,5,2,13,0.00
2014-8-7,82,71,59,-20,-27,-34,0,0,100,29.89,29.79,9,2,12,0.00
2014-8-8,66,59,57,-29,-34,-35,0,0,100,29.88,29.85,0,0,7,0.00
2014-8-9,83,71,56,-19,-19,-36,0,0,100,29.94,29.86,8,2,14,0.00
2014-8-10,92,77,60,-13,-23,-33,0,0,100,29.92,29.76,9,2,17,0.00
2014-8-11,72,68,64,-26,-57,-79,0,0,100,29.88,29.76,5,0,8,0.00
2014-9-6,82,65,51,-100,0,200,0,0,100,29.98,29.76,6,1,12,0.00
2014-9-7,81,69,58,-100,0,200,0,0,100,29.80,29.67,3,1,9,0.00
2014-9-8,79,63,53,-100,0,200,0,0,100,29.74,29.64,5,1,12,0.00
2014-9-9,65,56,50,-100,0,200,0,0,100,29.91,29.75,5,1,13,0.00
2014-9-10,70,60,46,-100,0,200,0,0,100,30.06,29.98,9,2,14,0.00
2014-9-11,66,53,42,-100,0,200,0,0,100,30.20,30.05,7,2,15,0.00
2014-9-12,75,56,41,-100,0,200,0,0,100,30.09,29.86,5,1,14,0.00
2014-10-3,75,60,46,-100,0,200,0,0,100,30.24,30.12,6,1,10,0.00
2014-10-4,79,65,55,-100,0,200,0,0,100,30.14,29.99,6,1,12,0.00
2014-10-5,80,69,58,-100,0,200,0,0,100,29.99,29.88,5,1,7,0.00
2014-10-6,81,66,60,-100,0,200,0,0,100,29.90,29.77,3,0,7,0.00
2014-10-7,78,69,59,-100,0,200,0,0,100,29.80,29.71,3,1,10,0.00
2014-10-8,71,62,53,-100,0,200,0,0,100,29.86,29.77,7,1,12,0.00
2014-10-9,70,59,50,-100,0,200,0,0,100,29.93,29.86,6,1,12,0.00
2014-10-10,71,61,50,-100,0,200,0,0,100,29.97,29.91,7,2,12,0.00
2014-10-11,60,53,45,-100,0,200,0,0,100,30.10,29.91,13,3,23,0.00
2014-10-12,46,44,42,-100,0,200,0,0,100,30.21,30.11,3,0,9,0.00
2014-10-28,51,45,43,-100,0,200,0,0,100,30.03,29.97,14,3,15,0.00
2014-10-29,54,49,42,-100,0,200,0,0,100,30.11,30.01,5,1,12,0.00
2014-10-30,51,51,51,-100,0,200,0,0,100,30.00,29.96,0,0,5,0.00
2014-11-1,43,36,32,-100,0,200,0,0,100,30.00,29.69,12,2,16,0.00
2014-11-2,46,38,33,-100,0,200,0,0,100,30.19,30.00,6,1,7,0.00
2014-11-3,47,39,39,-100,0,200,0,0,100,30.17,30.13,2,0,10,0.00
2014-11-7,52,43,36,-100,0,200,0,0,100,30.34,30.16,2,0,8,0.00
2014-11-8,66,52,38,-100,0,200,0,0,100,30.32,30.02,3,1,13,0.00
2014-11-9,57,49,36,-100,0,200,0,0,100,29.99,29.71,16,4,23,0.00
2014-11-10,42,36,32,-100,0,200,0,0,100,30.09,29.87,2,1,6,0.00
2014-11-12,23,14,6,-100,0,200,0,0,100,30.42,30.27,2,0,7,0.00
2014-11-13,18,15,12,-100,0,200,0,0,100,30.27,30.08,0,0,1,0.00
2014-11-14,20,16,11,-100,0,200,0,0,100,30.30,30.09,0,0,0,0.00
2014-11-15,13,10,9,-100,0,200,0,0,100,30.69,30.50,0,0,0,0.00
2014-11-16,24,24,24,-100,0,200,0,0,100,30.66,30.66,0,0,0,0.00
2014-11-17,27,25,23,-100,0,200,0,0,100,30.48,30.46,0,0,1,0.00
2014-11-18,42,34,25,-100,0,200,0,0,100,30.35,30.15,7,2,13,0.00
2014-11-19,36,29,23,-100,0,200,0,0,100,30.15,29.98,1,0,9,0.00
2014-11-21,39,38,37,-100,0,200,0,0,100,29.85,29.84,7,2,13,0.00
2014-11-22,32,0,200,-100,0,200,0,0,100,30.21,30.11,2,2,7,0.00
2014-11-23,42,37,32,-100,0,200,0,0,100,30.32,30.21,8,3,14,0.00
2014-11-24,47,41,33,-100,0,200,0,0,100,30.39,30.26,6,2,14,0.00
2014-11-25,52,48,46,-100,0,200,0,0,100,30.29,30.24,14,5,20,0.00
2014-11-26,52,46,41,-100,0,200,0,0,100,30.20,30.00,7,3,13,0.00
2014-11-27,53,50,46,-100,0,200,0,0,100,29.98,29.77,20,12,27,0.00
2014-11-28,46,45,44,-100,0,200,0,0,100,29.77,29.63,18,11,29,0.00
2014-11-29,20,0,200,-100,0,200,0,0,100,30.04,29.91,0,0,3,0.00
2014-11-30,21,18,14,-100,0,200,0,0,100,30.25,30.04,2,0,5,0.00
2014-12-1,36,27,13,-100,0,200,0,0,100,30.25,30.16,7,2,12,0.00
2014-12-2,39,35,18,-100,0,200,0,0,100,30.12,30.04,0,0,3,0.00
2014-12-3,25,20,17,-100,0,200,0,0,100,30.04,29.94,1,0,3,0.00
2014-12-4,41,31,24,-100,0,200,0,0,100,29.98,29.95,2,0,8,0.00
2014-12-5,46,38,27,-100,0,200,0,0,100,30.01,29.86,3,1,10,0.00
2014-12-6,-200,0,200,-100,0,200,0,0,100,30.25,30.25,0,0,0,0.00
2014-12-7,44,43,42,-100,0,200,0,0,100,30.13,30.10,3,1,10,0.00
2014-12-8,51,46,35,-100,0,200,0,0,100,30.09,29.98,9,4,18,0.00
2014-12-9,51,48,47,-100,0,200,0,0,100,29.98,29.84,20,5,23,0.00
2014-12-10,53,44,49,-100,0,200,0,0,100,29.83,29.39,15,6,28,0.00
2014-12-11,50,43,43,-100,0,200,0,0,100,29.28,29.19,10,6,30,0.00
2014-12-13,39,33,28,-100,0,200,0,0,100,30.21,30.14,3,0,7,0.00
2014-12-14,39,30,20,-100,0,200,0,0,100,30.20,30.06,7,1,10,0.00
2014-12-19,38,38,38,-100,0,200,0,0,100,29.87,29.87,0,0,7,0.00
2014-12-20,-200,0,200,-100,0,200,0,0,100,29.79,29.75,0,0,0,0.00
2014-12-22,44,41,37,-100,0,200,0,0,100,30.32,30.27,5,1,12,0.00
2014-12-23,50,43,37,-100,0,200,0,0,100,30.32,29.98,8,2,9,0.00
2014-12-24,40,40,40,-100,0,200,0,0,100,29.98,29.98,3,2,6,0.00
2014-12-25,31,29,27,-100,0,200,0,0,100,30.26,30.10,2,1,6,0.00
2014-12-28,34,30,28,-100,0,200,0,0,100,30.20,30.13,8,2,14,0.00
2014-12-29,29,21,9,-100,0,200,0,0,100,30.62,30.10,8,1,15,0.00
2014-12-30,11,6,3,-100,0,200,0,0,100,30.91,30.63,2,0,5,0.00
2014-12-31,17,12,3,-100,0,200,0,0,100,30.89,30.58,0,0,1,0.00
2015-1-1,23,18,9,-100,0,200,0,0,100,30.58,30.38,0,0,7,0.00
2015-1-2,41,32,20,-100,0,200,0,0,100,30.38,30.22,7,2,14,0.00